Regional Weather Roundup
Issued by NWS

Home | Current Version | Previous Version | Text Only | Print | Product List | Glossary Off
Versions: 1 2 3 4 5 6 7 8 9 10 11 12 13 14 15 16 17 18 19 20 21 22 23 24 25 26 27 28 29 30 31 32 33 34 35 36 37 38 39 40 41 42 43 44 45 46 47 48 49 50

000
ASUS45 KTFX 261419
RWRMT
MONTANA HOURLY WEATHER ROUNDUP
NATIONAL WEATHER SERVICE GREAT FALLS MT
819 AM MDT THU MAR 26 2015

NOTE: "FAIR" INDICATES FEW OR NO CLOUDS BELOW 12000 FEET WITH NO
SIGNIFICANT WEATHER AND/OR OBSTRUCTIONS TO VISIBILITY.

* THESE STATIONS ARE NOT UNDER NWS QUALITY CONTROL. THEY DO NOT
   REPORT WEATHER SUCH AS PRECIPITATION OR FOG.

MTZ001>007-043-261500-
WEST OF THE DIVIDE
CITY           SKY/WX    TMP DP  RH WIND       PRES   REMARKS
KALISPELL      LGT RAIN  39  37  93 CALM      30.28S VSB 1
MISSOULA       CLOUDY    41  37  86 E3        30.32F
BUTTE          CLOUDY    37  30  76 N6        30.30R WCI  32
MULLAN PASS    FOG       34  34 100 SW8       30.29S VSB M1/4 WCI  27
* ESSEX        N/A       35  34  96 N/A        N/A
* EUREKA APT   PTSUNNY   39  37  93 CALM      30.25S
* HAMILTON APT SUNNY     46  34  63 S14       30.32S
* LIBBY APT    PTCLDY    37  36  96 CALM      30.28S
* LINCOLN      N/A       37  36  96 SW5G11     N/A   WCI  33
* LOOKOUT PASS N/A       39  39 100 E4G9       N/A
* POLSON       N/A       40  39  96 SE1        N/A
* RONAN APT    PTCLDY    43  39  86 N/A        N/A
* SEELEY LAKE  N/A       34  33  96 E1         N/A
* THOMP F APT  PTCLDY    29  20  69 N2         N/A
$$

MTZ008-052>055-261500-
SOUTHWEST MONTANA
CITY           SKY/WX    TMP DP  RH WIND       PRES   REMARKS
BOZEMAN        CLOUDY    39  36  89 CALM      30.27R
DILLON         CLOUDY    43  28  56 SW20      30.30S
* W YELLOWSTON SUNNY     30  26  85 SW3        N/A
* THREE FORKS  PTCLDY    41  37  86 N/A        N/A
* TWIN BRIDGES PTCLDY    43  27  53 E7         N/A
* BOULDER HILL N/A       39  28  65 S6         N/A   WCI  35
* HOMESTAKE PS N/A       36  29  76 NW10G16    N/A   WCI  29
* MONIDA PASS  N/A       25  20  81 E2         N/A
* RAYNOLDS PAS N/A       27   3  35 SE19G24    N/A   WCI  14
* WHITEHALL    N/A       45  28  51 W12G24     N/A
* WISE RIVER   N/A       39  31  73 SW12G18    N/A   WCI  32
$$

MTZ009>010-012-014-046-048-049-054-261500-
EAST SLOPES AND CENTRAL MONTANA
CITY           SKY/WX    TMP DP  RH WIND       PRES   REMARKS
CUT BANK       PTCLDY    37  30  76 NW6       30.07F WCI  32
GREAT FALLS    CLOUDY    45  34  65 SW16      30.12S
HELENA         CLOUDY    46  36  68 W16       30.24S
MALMSTROM AFB  CLOUDY    46  34  63 SW22G29   30.13S
* CONRAD       PTSUNNY   43  34  71 CALM       N/A
* DEARBORN     N/A       48  33  56 SE8        N/A
* EAST GLACIER N/A       40  32  73 W26G35     N/A   WCI  29
* MONARCH      N/A       40  26  57 SW14G22    N/A   WCI  32
* PENDROY      N/A       47  29  50 NW14G20    N/A
* ROGERS PASS  N/A       36  33  89 SE21G32    N/A   WCI  25
* SWEET GRASS  N/A       40  32  73 W11G16     N/A   WCI  33
* WHITE SULPH  N/A       39  32  76 NW4        N/A
$$

MTZ011-013-016-021-035-040-045-047-050-051-261500-
NORTH CENTRAL MONTANA
CITY           SKY/WX    TMP DP  RH WIND       PRES   REMARKS
HAVRE          PTCLDY    34  30  85 W7        30.09S WCI  28
LEWISTOWN      CLOUDY    45  34  65 W7        30.13S
* N BAR RANCH  SUNNY     45  32  60 NW13G21   30.11F
* CHINOOK      PTCLDY    34  28  79 CALM      30.10S
* FORT BENTON  PTSUNNY   46  34  63 SW9       30.12S
* MALTA APT    CLOUDY    34  27  76 N/A        N/A
* CHESTER      N/A       33  28  82 N/A        N/A
* DENTON       N/A       43  31  63 W9G14      N/A
* GEYSER       N/A       45  29  54 W13G20     N/A
* JUDITH GAP   N/A       41  30  65 W13G22     N/A
* LOMA         N/A       44  33  65 SW11       N/A
$$

MTZ017>020-022>027-061-062-261500-
NORTHEAST MONTANA
CITY           SKY/WX    TMP DP  RH WIND       PRES   REMARKS
GLASGOW        FOG       30  28  92 SE13      30.11R WCI  20
GLENDIVE       CLOUDY    34  28  79 NE3       30.13R
JORDAN         PTSUNNY   34  28  79 CALM      30.10R
SIDNEY         CLOUDY    32  28  85 N7        30.15R WCI  25
WOLF POINT     FOG       34  30  85 NE3       30.15R VSB 2 1/2
* BEAVER HILL  N/A       32  30  92 SE12       N/A   WCI  23
* CIRCLE       N/A       30  28  92 N/A        N/A
* LINDSAY DVD  N/A       31  30  96 E7         N/A   WCI  24
* NAVAJO       N/A       29  29 100 S4         N/A
* PLENTYWOOD A PTSUNNY   30  28  92 SE6       30.15R WCI  24
* POPLAR APT   CLOUDY    32  32 100 E3        30.16R
* SACO         N/A       28  24  85 SE1        N/A
$$

MTZ028>042-056>058-261500-
SOUTHCENTRAL AND SOUTHEAST MONTANA
CITY           SKY/WX    TMP DP  RH WIND       PRES   REMARKS
BAKER          CLOUDY    32  28  85 E13       30.10R WCI  22
BILLINGS       CLOUDY    46  32  58 W12       30.15F
LIVINGSTON     CLOUDY    46  28  50 SW26G37   30.19S
MILES CITY     CLOUDY   N/A N/A N/A N/A       30.10R
* BIG TIMBER A PTSUNNY   45  30  56 SW26G33   30.17F
* FORSYTH APT  PTSUNNY   45  30  56 SW7       30.12R
* LAUREL APT   CLOUDY    45  25  45 W5         N/A
* ROUNDUP APT  CLOUDY    43  28  56 SW8        N/A
* ALZADA       N/A       42  29  60 W8         N/A
* HYSHAM       N/A       43  25  49 W2         N/A
* LAME DEER    N/A       40  27  60 W9         N/A   WCI  34
* REED POINT   N/A       47  28  48 W13G19     N/A
* ROSCOE HILL  N/A       47  15  28 W12G24     N/A
$$

REGIONAL REPORTS...DAKOTAS
CITY           SKY/WX    TMP DP  RH WIND       PRES   REMARKS
WILLISTON      CLOUDY    30  27  89 E5        30.16S WCI  25
DICKINSON      LGT SNOW  28  25  89 SE3       30.10R VSB 3
BEACH          PTSUNNY   32  32 100 S6        30.11S WCI  26
CROSBY         PTSUNNY   28  28 100 CALM      30.19R
TIOGA          SUNNY     27  27 100 SE3       30.19R
WATFORD CITY   CLOUDY    28  27  96 E5        30.14R WCI  22
BISMARCK       CLOUDY    27  25  92 E5        30.19R WCI  21
GRAND FORKS    SUNNY     25  18  75 N10       30.25R WCI  15
FARGO          PTSUNNY   25  18  75 NW12      30.23R WCI  14
BUFFALO SD     PTSUNNY   34  27  76 N3        30.00R
RAPID CITY     CLOUDY    45  30  56 NW21G29   30.06S
$$

REGIONAL REPORTS...WYOMING/IDAHO/WASHINGTON
CITY           SKY/WX    TMP DP  RH WIND       PRES   REMARKS
GILLETTE       LGT RAIN  39  34  82 NW13      30.15R WCI  31
SHERIDAN       CLOUDY    45  34  65 NW9       30.17S
CODY           CLOUDY    45  25  45 W14G24    30.19S
YELLOWSTONE LA PTCLDY    25  21  85 CALM      30.36S
SALMON         CLOUDY    43  34  71 CALM      30.36F
MULLAN PASS    FOG       34  34 100 SW8       30.29S VSB M1/4 WCI  27
SAND POINT     CLOUDY    46  46 100 SW5       30.30S
SPOKANE        PTSUNNY   45  43  93 S9        30.30S
$$

REGIONAL REPORTS...ALBERTA
CITY           SKY/WX    TMP DP  RH WIND       PRES   REMARKS
CALGARY        PTSUNNY   39  25  57 S3        30.00F
LETHBRIDGE     PTSUNNY   48  34  59 W26G38    30.04S
MEDICINE HAT   PTCLDY    28  28 100 SW6       30.06R WCI  21
EDMONTON       CLOUDY    34  28  79 SE8       29.99F WCI  27
WATERTON GATE  N/A       45  32  60 SW16G30    N/A
CARDSTON       N/A       46  34  63 W12        N/A
MILK RIVER     N/A       37  32  82 NW9        N/A   WCI  30
$$

REGIONAL REPORTS...SASKATCHEWAN
CITY           SKY/WX    TMP DP  RH WIND       PRES   REMARKS
SWIFT CURRENT  PTSUNNY   28  27  96 E6        30.08R WCI  21
MOOSE JAW      FOG       27  25  92 SE8       30.16R WCI  19
REGINA         PTSUNNY   25  21  85 SE13      30.17S WCI  13
VAL MARIE      N/A       27  25  92 S1         N/A
ASSINIBOIA     N/A       28  27  96 S5         N/A   WCI  22
CORONACH       N/A       30  28  92 SE2        N/A

$$




USA.gov is the U.S. government's official web portal to all federal, state and local government web resources and services.